Weather in Ravninny

Russia / Orenburg Oblast     53°12′39″N   54°04′23″E
temp.,
°C
wind,
m/s
gust,
m/s
humid.,
%
clouds,
%
prec.,
mm/h
press.,
hPa
HPBL,
m
25 february, thu
thu2523:00−25nnw58910 0.0 1030105
02:00−27nnw44940 0.0 103127
05:00−29nw34950 0.0 103320
08:00−29nw33970 0.0 103419
11:00−26nw11920 0.0 103442
14:00−22ssw23870 0.0 1033180
17:00−22ssw359333 0.0 1032172
20:00−23s4894100 0.0 1030150
26 february, fri
fri2623:00−21s61097100 0.1 1029291
02:00−21sse61197100 0.5 1027348
05:00−21sse71196100 0.8 1025344
08:00−21sse7119598 0.1 1023310
11:00−20sse8129395 0.1 1023394
14:00−17se8118998 0.0 1021499
17:00−16se7119099 0.0 1021482
20:00−18se6119583 0.0 1019192
27 february, sat
sat2723:00−17se7129483 0.0 1017260
02:00−15se91593100 0.0 1012324
05:00−12sse111694100 1.0 1008428
08:00−10sse91594100 4.3 1003494
11:00−7sse91393100 5.4 1002400
14:00−3sse689692 0.5 1001289
17:000wsw589996 0.8 1001421
20:00−1sw5897100 0.5 1001250
28 february, sun
sun2823:00−1sw4798100 0.6 1002339
02:00−1sw4797100 0.2 1001268
05:00−4ssw4498100 0.3 100236
08:00−4sw339792 0.1 100147
11:00−2ssw359496 0.1 1002212
14:00−1sw4596100 0.1 1003349
17:00−1sw3596100 0.3 1004277
20:00−2ssw3498100 0.4 100664
1 march, mon
mon123:00−3sw2398100 1.0 100742
02:00−4wsw229799 0.3 100821
05:00−7wnw339791 0.6 101030
08:00−9n469688 0.1 101298
11:00−10nne459488 0.3 1014248
14:00−10n459297 0.1 1016285
17:00−12nnw469398 0.1 1017209
20:00−17nnw459590 0.0 101965